This is the latest recevied weather packets stored in our database for station/object AA4XD. If no packets are shown the sender has not sent any weather packets the latest 10 day(s).
| Time | Temp. | Humidity | Pressure | Rain* | Wind** | Luminosity | Snow |
|---|---|---|---|---|---|---|---|
| 1777838672 | 27.22° C | 36% | 1015.6 hPa | 0 mm | - | 769 W/m² | - |
| 1777838368 | 27.78° C | 34% | 1015.8 hPa | 0 mm | - | 782 W/m² | - |
| 1777838066 | 27.22° C | 36% | 1015.9 hPa | 0 mm | - | 794 W/m² | - |
| 1777837762 | 27.22° C | 36% | 1015.7 hPa | 0 mm | - | 803 W/m² | - |
| 1777837459 | 26.67° C | 36% | 1016 hPa | 0 mm | - | 822 W/m² | - |
| 1777837155 | 26.11° C | 38% | 1016.1 hPa | 0 mm | - | 831 W/m² | - |
| 1777836850 | 26.67° C | 36% | 1016 hPa | 0 mm | - | 861 W/m² | - |
| 1777836546 | 26.67° C | 39% | 1016.4 hPa | 0 mm | - | 745 W/m² | - |
| 1777836242 | 26.67° C | 36% | 1016.3 hPa | 0 mm | - | 854 W/m² | - |
| 1777835938 | 26.11° C | 38% | 1016.5 hPa | 0 mm | - | 670 W/m² | - |
| 1777835636 | 26.67° C | 36% | 1016.5 hPa | 0 mm | - | 712 W/m² | - |
| 1777835332 | 26.67° C | 37% | 1016.4 hPa | 0 mm | - | 609 W/m² | - |
| 1777835029 | 26.11° C | 38% | 1016.7 hPa | 0 mm | - | 992 W/m² | - |
| 1777834726 | 26.11° C | 36% | 1016.6 hPa | 0 mm | - | 503 W/m² | - |
| 1777834422 | 25.56° C | 37% | 1016.8 hPa | 0 mm | - | 1040 W/m² | - |
| 1777834122 | 26.11° C | 38% | 1016.8 hPa | 0 mm | - | 957 W/m² | - |
| 1777833819 | 26.11° C | 39% | 1017.1 hPa | 0 mm | - | 1032 W/m² | - |
| 1777833514 | 26.11° C | 38% | 1017 hPa | 0 mm | - | 836 W/m² | - |
| 1777833212 | 25.56° C | 39% | 1017 hPa | 0 mm | - | 873 W/m² | - |
| 1777832909 | 25° C | 38% | 1017 hPa | 0 mm | - | 1058 W/m² | - |
| 1777832609 | 25.56° C | 38% | 1017.2 hPa | 0 mm | - | 672 W/m² | - |
| 1777832305 | 25.56° C | 38% | 1017.4 hPa | 0 mm | - | 1007 W/m² | - |
| 1777832002 | 26.11° C | 39% | 1017.4 hPa | 0 mm | - | 1042 W/m² | - |
| 1777831698 | 25.56° C | 40% | 1017.2 hPa | 0 mm | - | 425 W/m² | - |
| 1777831397 | 25.56° C | 38% | 1017.4 hPa | 0 mm | - | 1043 W/m² | - |
* Rain latest hour (hover to see other rain measurements)
** Current wind speed in m/s (hover to see current wind gust speed)